Terminal Aerodrome Forecast
Issued by NWS Denver/Boulder, CO

Home | Current Version | Previous Version | Text Only | Print | Product List | Glossary On
Versions: 1 2 3 4 5 6 7 8 9 10 11 12 13 14 15 16 17 18 19 20 21 22 23 24 25 26 27 28 29 30 31 32 33 34 35 36 37 38 39 40 41 42 43 44 45 46 47 48 49 50
960
FTUS45 KBOU 210522
TAFDEN
TAF
KDEN 210522Z 2106/2212 17008KT P6SM FEW080 SCT220
     FM210800 21006KT P6SM FEW080 SCT220
     FM211400 VRB05KT P6SM FEW120 SCT220
     FM212100 02006KT P6SM SCT070 BKN110
     FM220100 30007KT P6SM SCT050 BKN070
     FM220800 26007KT P6SM SCT070 BKN110=

USA.gov is the U.S. government's official web portal to all federal, state and local government web resources and services.